Regional Weather Roundup
Issued by NWS

Home | Current Version | Previous Version | Graphics & Text | Print | Product List | Glossary On
Versions: 1 2 3 4 5 6 7 8 9 10 11 12 13 14 15 16 17 18 19 20 21 22 23 24 25 26 27 28 29 30 31 32 33 34 35 36 37 38 39 40 41 42 43 44 45 46 47 48 49 50
000
ASUS43 KLOT 300203
RWRIL

ILLINOIS REGIONAL WEATHER ROUNDUP
NATIONAL WEATHER SERVICE CHICAGO/ROMEOVILLE IL
900 PM CDT WED MAR 29 2017

NOTE: "FAIR" INDICATES FEW OR NO CLOUDS BELOW 12,000 FEET WITH NO
SIGNIFICANT WEATHER AND/OR OBSTRUCTIONS TO VISIBILITY.

* THESE STATIONS ARE NOT UNDER NWS QUALITY CONTROL. THEY ALSO MAY NOT
  REPORT WEATHER SUCH AS PRECIPITATION OR FOG.

ILZ001-002-007-009-015-016-024-300300-
NORTHWEST ILLINOIS

CITY           SKY/WX    TMP DP  RH WIND       PRES   REMARKS
MOLINE         LGT RAIN  44  40  85 E22G28    29.96F
STERLING*      LGT RAIN  42  39  89 E28       30.00F
SAVANNA*       DRIZZLE   42  38  86 NE21G28   30.03F
$$

ILZ003-004-008-010-011-017-018-300300-
NORTH CENTRAL ILLINOIS

CITY           SKY/WX    TMP DP  RH WIND       PRES   REMARKS
ROCKFORD       CLOUDY    42  37  82 NE17G30   30.08F
FREEPORT*      CLOUDY    40  38  91 NE20G26   30.07F
ROCHELLE*      LGT RAIN  41  38  91 NE23G29   30.05S
DE KALB*       RAIN      41  38  90 NE18      30.06F
PERU*          CLOUDY    44  40  87 NE15G23   30.00F
$$

ILZ005-006-012>014-019>023-300300-
NORTHEAST ILLINOIS

CITY           SKY/WX    TMP DP  RH WIND       PRES   REMARKS
CHICAGO-OHARE  LGT RAIN  44  38  79 NE13      30.10R
CHICAGO-MIDWAY LGT RAIN  47  39  74 NE16G23   30.08R
AURORA         CLOUDY    44  38  79 NE20      30.03F
LANSING*       LGT RAIN  47  43  84 E9        30.05R
JOLIET*        RAIN      47  43  86 NE8       30.04F
WAUKEGAN       LGT RAIN  39  37  92 N13G22    30.11S WCI  31
DUPAGE AIRPORT CLOUDY    43  40  89 NE14      30.05F
KANKAKEE*      CLOUDY    50  41  70 E20       30.00F
WHEELING       LGT RAIN  42  38  85 NE10      30.13R
MORRIS*        LGT RAIN  46  42  87 NE6       30.02R
ROMEOVILLE*    LGT RAIN  44  42  94 NE14G21   30.04F
NORTHERLY ISL    N/A     41  38  89 N10         N/A
$$

LMZ740>746-300300-
SOUTHERN LAKE MICHIGAN

STATION/POSITION SKY/WX   TEMP    WIND        PRES    VSBY  WAVE
                          AIR SEA DIR/SP/G                  HT/PER
                          (F)     (DEG/KT/KT) (MB)    (MI)  (FT/S)
HARRISON CRIB              43      50/ 20/ 21   N/A
BURNHAM HARBOR             41      10/  7/ 14   N/A
CALUMET HARBOR             44      50/ 12/ 16 1017.5F
BURNS HARBOR               47      60/ 10/ 19 1019.6
MICHIGAN CITY              49      70/ 16/ 20   N/A
$$

ILZ025>027-034>036-040-047-049-050-058-095>099-300300-
WEST-CENTRAL ILLINOIS

CITY           SKY/WX    TMP DP  RH WIND       PRES   REMARKS
QUINCY         CLOUDY    53  49  86 E18G25    29.79F
GALESBURG*     CLOUDY    46  43  89 NE15      29.91F
MACOMB*        LGT RAIN  49  46  91 E16       29.90F
JACKSONVILLE*  LGT RAIN  53  49  84 E15       29.84F
PITTSFIELD*    CLOUDY    54  52  94 E10       29.83F
$$

ILZ028>032-037-038-041>044-048-051>054-059>061-300300-
CENTRAL ILLINOIS

CITY           SKY/WX    TMP DP  RH WIND       PRES   REMARKS
PONTIAC        CLOUDY    50  45  82 E22       29.97F
BLOOMINGTON    CLOUDY    51  46  83 E13       29.94F
DECATUR        CLOUDY    53  46  77 E16       29.89F
PEORIA         CLOUDY    50  46  86 E15       29.93S
LACON*         RAIN      46  44  92 NE8       29.98R
LINCOLN*       CLOUDY    54  48  80 E12       29.90S
SPRINGFIELD    CLOUDY    56  48  74 E10       29.87F
TAYLORVILLE    NOT AVBL
$$

ILZ033-039-045-046-055>057-062-063-300300-
EAST-CENTRAL ILLINOIS

CITY           SKY/WX    TMP DP  RH WIND       PRES   REMARKS
CHAMPAIGN      CLOUDY    56  45  66 E17       29.92F
RANTOUL*       CLOUDY    56  47  74 E12       29.95R
MATTOON        CLOUDY    56  48  74 E16       29.89F
PARIS*         CLOUDY    57  47  69 E12G21    29.95S
$$

ILZ079-100>102-300300-
SOUTHWEST ILLINOIS

CITY           SKY/WX    TMP DP  RH WIND       PRES   REMARKS
ALTON          PTCLDY    57  52  82 E14       29.80F
BELLEVILLE     PTCLDY    61  56  83 NE7       29.79F
CAHOKIA*       PTCLDY    64  53  67 E13       29.78F
SPARTA*        PTCLDY    64  55  72 E12       29.81S
$$

ILZ064>066-069>071-074>076-080>082-084>086-088>090-092>094-300300-
SOUTH-CENTRAL ILLINOIS

CITY           SKY/WX    TMP DP  RH WIND       PRES   REMARKS
CARBONDALE     CLOUDY    66  56  70 E12       29.81F
CAIRO*         CLOUDY    68  60  74 E6        29.81R
EFFINGHAM*     CLOUDY    58  51  75 E12G18    29.90S
MARION         CLOUDY    66  57  72 E5        29.83F
MT. VERNON     CLOUDY    64  53  67 E14G21    29.83F
CENTRALIA*     CLOUDY    61  54  76 E8        29.82F
SALEM*         CLOUDY    61  51  69 E8G16     29.85F
METROPOLIS*    CLOUDY    70  58  67 SE6       29.84S
$$

ILZ067-068-072-073-078-083-087-091-300300-
SOUTHEAST ILLINOIS

CITY           SKY/WX    TMP DP  RH WIND       PRES   REMARKS
LAWRENCEVILLE  MOCLDY    60  51  72 E14       29.93S
FLORA*         MOCLDY    61  52  71 E12       29.88F
FAIRFIELD*     MOCLDY    63  52  68 E9G17     29.86F
HARRISBURG*    MOCLDY    65  56  72 E15       29.85F
ROBINSON*      CLOUDY    58  49  72 E12       29.94S
CARMI*         MOCLDY    62  54  74 E13       29.87F
$$

ABBREVIATIONS USED IN REMARKS
   TC - TEMPERATURE IN CELSIUS
  WCI - WIND CHILL INDEX
   HX - HEAT INDEX
  VSB - VISIBILITY
$$




USA.gov is the U.S. government's official web portal to all federal, state and local government web resources and services.